Content
SEND FEEDBACK

Daily
Averages
Monthly
Summary
Turkmenistan

ASHGABAT, TURKMENISTAN


Home > Asia > Turkmenistan
Elevation: 775 feet     Latitude: 37 58N     Longitude: 058 20E

WEATHER
 
SELECT A DAY
Number of Records: 183,734;   Date Range: 3/15/97 - 12/26/14
 
SHARE

PRINT THIS DATA

[ ← Previous Day ]
WEATHER ALMANAC - APRIL 10, 2014
[ Next Day → ]
[ °C ]   °F
Weather ElementAverageHighLow
Temperature62.9 °F73.4 °F (6:00 pm)55.4 °F (6:00 am)
Dewpoint46.9 °F57.2 °F (1:00 am)41 °F (4:00 pm)
Humidity55.7 %82 % (1:00 am)25 % (5:00 pm)
Barometer30.00 in30.06 in (10:30 am)29.83 in (1:00 am)
Wind Speed8.2 mph20.1 mph (9:30 am)
Wind Gust31.3 mph (9:00 am)
Weather ElementAverage
Visibility6.2 mi
Wind DirectionSSW (208.1 °)

Weather ElementTotal
Precipitation---
Heating Degree Days0.6 (Base 65)
Growing Degree Days14.4 (Base 50)
Averaged from 37 records on April 10, 2014
WEATHER CONDITIONS BREAKOUT
WIND DIRECTION BREAKOUT
WEATHER BY HOUR - APRIL 10, 2014
[ °C ]   °F
Local TimeTemperatureDewpointHumidityBarometerVisibilityWind DirectionWind SpeedGust SpeedPrecipitationEventsConditions
1:00 AM62.6 °F57.2 °F82 %29.83 in6.2 miCalmOvercast
2:00 AM62.0 °F56.0 °F74 %29.87 in6.0 miWest (270°)15.7 mphPartly Cloudy
2:00 AM62.6 °F55.4 °F77 %29.86 in6.2 miWest (280°)13.4 mphOvercast
3:00 AM62.6 °F48.2 °F59 %29.89 in6.2 miWNW (290°)11.2 mphOvercast
4:00 AM59.0 °F48.2 °F67 %29.92 in6.2 miNW (320°)8.9 mphOvercast
5:00 AM57.0 °F45.0 °F53 %29.97 in6.0 miWNW (300°)13.4 mphPartly Cloudy
5:00 AM57.2 °F44.6 °F63 %29.95 in6.2 miWNW (300°)13.4 mphOvercast
6:00 AM55.4 °F44.6 °F67 %29.98 in6.2 miWNW (290°)6.7 mphOvercast
6:30 AM55.4 °F44.6 °F67 %29.98 in6.2 miWSW (250°)4.5 mphOvercast
7:00 AM57.2 °F48.2 °F72 %30.01 in6.2 miWest (260°)11.2 mphRainLight Rain Showers
7:30 AM57.2 °F50.0 °F77 %29.98 in6.2 miSSW (210°)6.7 mphRainLight Rain Showers
8:00 AM59.0 °F47.0 °F56 %30.00 in6.0 miSouth (170°)4.5 mphRainLight Rain Showers
8:00 AM59.0 °F48.2 °F67 %29.98 in6.2 miSouth (170°)4.5 mphMostly Cloudy
8:30 AM60.8 °F48.2 °F63 %29.95 in6.2 miSE (140°)8.9 mphMostly Cloudy
9:00 AM59.0 °F50.0 °F72 %30.01 in6.2 miWNW (290°)17.9 mph31.3 mphMostly Cloudy
9:30 AM57.2 °F48.2 °F72 %30.04 in6.2 miNW (310°)20.1 mphMostly Cloudy
10:00 AM57.2 °F46.4 °F67 %30.04 in6.2 miWNW (290°)13.4 mphMostly Cloudy
10:30 AM59.0 °F46.4 °F63 %30.06 in6.2 miNW (310°)8.9 mphMostly Cloudy
11:00 AM60.8 °F46.4 °F59 %30.06 in6.2 miNW (310°)8.9 mphScattered Clouds
11:00 AM59.0 °F46.0 °F53 %30.06 in6.0 miWNW (300°)8.9 mphPartly Cloudy
11:30 AM62.6 °F44.6 °F52 %30.06 in6.2 miNNW (330°)4.5 mphScattered Clouds
12:00 PM62.6 °F44.6 °F52 %30.06 in6.2 miNorth (10°)6.7 mphScattered Clouds
1:00 PM66.2 °F44.6 °F46 %30.04 in6.2 miNorth (350°)6.7 mphScattered Clouds
2:00 PM66.0 °F44.0 °F33 %30.04 in6.0 miNorth (350°)6.7 mphPartly Cloudy
2:00 PM68.0 °F42.8 °F40 %30.04 in6.2 miNNW (340°)6.7 mphScattered Clouds
3:00 PM69.8 °F42.8 °F38 %30.01 in6.2 miENE (70°)4.5 mphScattered Clouds
4:00 PM71.6 °F41.0 °F33 %30.01 in6.2 miVariable2.2 mphScattered Clouds
5:00 PM71.6 °F42.8 °F35 %30.01 in6.2 miENE (70°)6.7 mphScattered Clouds
5:00 PM72.0 °F44.0 °F25 %30.01 in6.0 miEast (100°)6.7 mphPartly Cloudy
6:00 PM73.4 °F41.0 °F31 %30.01 in6.2 miEast (100°)4.5 mphMostly Cloudy
7:00 PM71.6 °F44.6 °F38 %30.01 in6.2 miESE (120°)8.9 mphMostly Cloudy
8:00 PM69.0 °F46.0 °F33 %30.02 in6.0 miSSE (160°)8.9 mphOvercast
8:00 PM68.0 °F46.4 °F46 %30.04 in6.2 miSSE (160°)8.9 mphOvercast
9:00 PM66.2 °F48.2 °F52 %30.04 in6.2 miSSE (150°)4.5 mphMostly Cloudy
10:00 PM64.4 °F50.0 °F59 %30.04 in6.2 miESE (110°)4.5 mphPartly Cloudy
11:00 PM62.0 °F50.0 °F55 %30.06 in6.0 miESE (110°)4.5 mphScattered Clouds
11:00 PM62.6 °F50.0 °F63 %30.04 in6.2 miESE (110°)4.5 mphPartly Cloudy
Hourly data recorded from UTAA, located miles away from Ashgabat, Turkmenistan







STORIES FROM OUR PARTNERS